Notices

What's New in latest Release from April 7th, 2021:

- Updated Glossary, including Speed of Maximum Gust, and Total Hourly Precipitation

- Updated national and regional climate services offices contacts and prices information

- Addition of station inventory lists for 1981-2010, 1971-2000, and 1961-1990 Normals.

If you haven't already, please take our survey and provide feedback about our website: https://eccc.sondage-survey.ca/f/LanguageSelection.aspx?s=442ca660-fcf1-47c0-95a9-59707d6fd709

Hourly Data Report for January 01, 2021

EDMUNDSTON
NEW BRUNSWICK
Current Station Operator: ECCC - MSC

47°25'00.000" N
68°19'28.040" W
154.20 m
8101303
71590
ERM

Download Data

Hourly Data (January 2021)
Hourly Data Report for January 1, 2021
TIME
LST
Temp Definition
°C
Dew Point Definition
°C
Rel Hum Definition
%
Precip. Amount Definition
mm

Wind Dir Definition
10's deg

Wind Spd Definition
km/h
Visibility Definition
km
Stn Press Definition
kPa
Hmdx Definition


Wind Chill Definition


Weather Definition


00:00 -7.8 LegendMM LegendMM 0.0 35 4   100.39   -10 LegendNANA
01:00 -11.7 LegendMM LegendMM 0.0 29 4   100.49   -14 LegendNANA
02:00 -14.5 LegendMM LegendMM 0.0 35 7   100.58   -19 LegendNANA
03:00 -15.2 LegendMM LegendMM 0.0 36 4   100.70   -18 LegendNANA
04:00 -16.6 LegendMM LegendMM 0.0 32 2   100.80   -18 LegendNANA
05:00 -17.4 LegendMM LegendMM 0.0 32 2   100.86   -19 LegendNANA
06:00 -18.4 LegendMM LegendMM 0.0 32 2   100.90   -20 LegendNANA
07:00 -16.9 LegendMM LegendMM 0.0 28 2   100.96   -18 LegendNANA
08:00 -16.4 LegendMM LegendMM 0.0 34 3   101.04   -19 LegendNANA
09:00 -14.5 LegendMM LegendMM 0.0 34 3   100.99   -17 LegendNANA
10:00 -12.3 LegendMM LegendMM 0.0 23 2   101.08   -14 LegendNANA
11:00 -9.1 LegendMM LegendMM 0.0 24 3   101.09   -11 LegendNANA
12:00 -7.0 LegendMM LegendMM 0.0 31 7   100.97   -11 LegendNANA
13:00 -5.8 LegendMM LegendMM 0.0 30 10   100.98   -10 LegendNANA
14:00 -4.5 LegendMM LegendMM 0.0 26 12   100.92   -9 LegendNANA
15:00 -4.3 LegendMM LegendMM 0.0 29 12   100.93   -9 LegendNANA
16:00 -4.5 LegendMM LegendMM 0.0 30 7   100.86   -8 LegendNANA
17:00 -7.4 LegendMM LegendMM 0.0 29 4   100.85   -9 LegendNANA
18:00 -11.4 LegendMM LegendMM 0.0 0 1   100.88   -12 LegendNANA
19:00 -13.6 LegendMM LegendMM 0.0 36 2   100.88   -15 LegendNANA
20:00 -14.9 LegendMM LegendMM 0.0 34 4   100.85   -18 LegendNANA
21:00 -13.3 LegendMM LegendMM 0.0 27 2   100.82   -15 LegendNANA
22:00 -12.7 LegendMM LegendMM 0.0 27 2   100.74   -14 LegendNANA
23:00 -12.4 LegendMM LegendMM 0.0 0 1   100.64   -13 LegendNANA

Notes on Data Quality.

Legend

  • E = Estimated
  • M = Missing
  • NA = Not Available*
  • [empty] = Indicates an unobserved value
Date modified: